Portada
METAR-TAF:

METAR-TAF

Aeroports :

Kuantan, Malàisia

latitud: 03-37N, longitud: 103-13E, altitud: 18 m

Observació

L'informe es va fer fa 22 minuts, a les 07:00 UTC
Vent 2 kt amb direcció variable
Temperatura 34°C
Humitat 60%
Pressió 1006 hPa
Visibilitat 10 km o més
Núvols disperses a una alçada de 2000 ft
Núvols disperses a una alçada de 16000 ft
Cel ennuvolat a una alçada de 28000 ft

METAR: WMKD 230700Z VRB02KT 9999 SCT020 SCT160 BKN280 34/25 Q1006 NOSIG

Hora: 15:22 (07:22 UTC)


TAF: manca

Observacions i pronòstics meteorològics de més de 4000 aeroports (METAR i TAF).

Les estacions disponibles són els punts grocs i vermells al mapa.

Posi el ratolí al punt desitjat per veure el nom de l'estació.

Feu clic per veure les observacions i els pronòstics meteorològics.

Per canviar el mapa: feu clic els botons verds amb una creu de color negre per apropar; al botó verd amb un guió per allunyar la imatge; o en les fletxes verdes per a mapes adjacents.


METAR-TAF: